Flag for Japan Weather past 2 weeks in Yokohama, Japan

Now
59 °F

Light rain. Passing clouds.


Feels Like: 56 °F
Forecast: 57 / 67 °F
Wind: 15 mph from North

Location: Tokyo International Airport

Current Time: Oct 23, 2014 at 5:46:50 PM

Latest Report: Oct 23, 2014 at 5:00 PM


Visibility: N/A

Pressure: 30.07 "Hg

Humidity: 77%

Dew point: 52 °F

Location of YokohamaLocation

Historic Weather in Yokohama — Graph

°F

Yokohama temperature yesterday

Maximum temperature yesterday: 72 °F (at 12:00 AM)
Minimum temperature yesterday: 57 °F (at 8:00 PM)
Average temperature yesterday: 62 °F

Past Weeks' High & Low Weather Summary

 TemperatureHumidityPressure
High81 °F (Oct 14, 10:00 AM)100% (Oct 13, 5:50 PM)30.36 "Hg (Oct 13, 5:50 PM)
Low55 °F (Oct 23, 7:30 AM)31% (Oct 17, 12:30 PM)29.06 "Hg (Oct 14, 3:00 AM)
Average65 °F71%30.04 "Hg
* Reported Oct 8 4:00 PM — Oct 23 4:30 PM, Yokohama, Weather by CustomWeather, © 2014

Note: Actual official high and low records may vary slightly from our data, if they occured in-between our weather recording intervals... More about our weather records

Advertising

Yokohama weather history for previous 24 hours

 ConditionsComfort  
Time TempWeatherWind HumidityBarometerVisibility
4:30 PM
Oct 23
59 °FScattered showers. Partly sunny.14 mph77%30.07 "HgN/A
4:00 PM59 °FScattered showers. Broken clouds.13 mph82%30.07 "HgN/A
3:30 PM59 °FPartly sunny.14 mph77%30.07 "HgN/A
3:00 PM59 °FPartly sunny.14 mph77%30.07 "HgN/A
2:30 PM59 °FPartly sunny.14 mph72%30.07 "HgN/A
2:00 PM59 °FPartly sunny.16 mph77%30.07 "HgN/A
1:30 PM59 °FScattered showers. Partly sunny.15 mph77%30.07 "HgN/A
1:00 PM57 °FLight rain. Broken clouds.15 mph82%30.07 "HgN/A
12:30 PM57 °FLight rain. Partly sunny.18 mph82%30.04 "HgN/A
12:00 PM57 °FLight rain. Partly sunny.16 mph77%30.07 "HgN/A
11:30 AM59 °FLight rain. Partly sunny.13 mph77%30.07 "HgN/A
11:00 AM57 °FLight rain. Partly sunny.15 mph82%30.07 "HgN/A
10:30 AM57 °FLight rain. Partly sunny.15 mph82%30.07 "HgN/A
10:00 AM57 °FLight rain. Partly sunny.16 mph82%30.07 "HgN/A
9:30 AM57 °FLight rain. Broken clouds.17 mph82%30.07 "HgN/A
9:00 AM57 °FBroken clouds.17 mph82%30.07 "HgN/A
8:30 AM57 °FLight rain. Partly sunny.16 mph82%30.07 "HgN/A
8:00 AM57 °FLight rain. Overcast.17 mph88%30.07 "HgN/A
7:30 AM55 °FLight rain. Partly sunny.18 mph88%30.04 "HgN/A
7:00 AM57 °FLight rain. Partly sunny.21 mph82%30.04 "HgN/A
6:30 AM57 °FLight rain. Partly sunny.18 mph88%30.04 "HgN/A
6:00 AM57 °FLight rain. Partly sunny.21 mph88%30.01 "HgN/A
5:30 AM57 °FLight rain. Passing clouds.18 mph88%30.01 "HgN/A
5:00 AM57 °FLight rain. Passing clouds.18 mph88%30.01 "HgN/A
4:30 AM57 °FLight rain. Passing clouds.22 mph88%29.98 "HgN/A
4:00 AM57 °FLight rain. Passing clouds.20 mph88%29.98 "HgN/A
3:30 AM57 °FLight rain. Partly cloudy.20 mph88%29.98 "HgN/A
3:00 AM57 °FLight rain. Passing clouds.21 mph88%29.95 "Hg5 mi
2:30 AM57 °FRain. Passing clouds.20 mph88%29.98 "Hg5 mi
2:00 AM57 °FSprinkles. Partly cloudy.22 mph88%29.95 "HgN/A
1:30 AM57 °FSprinkles. Passing clouds.18 mph94%29.98 "HgN/A
1:00 AM57 °FSprinkles. Partly cloudy.20 mph94%29.95 "HgN/A
12:30 AM57 °FSprinkles. Partly cloudy.21 mph94%29.95 "HgN/A
12:00 AM57 °FSprinkles. Partly cloudy.20 mph94%29.95 "HgN/A
11:30 PM
Oct 22
59 °FSprinkles. Partly cloudy.18 mph88%29.98 "HgN/A
11:00 PM57 °FSprinkles. Partly cloudy.18 mph94%29.95 "HgN/A
10:30 PM57 °FSprinkles. Partly cloudy.20 mph94%29.95 "HgN/A
10:00 PM57 °FSprinkles. Partly cloudy.20 mph94%29.95 "HgN/A
9:30 PM57 °FSprinkles. Partly cloudy.20 mph94%29.98 "HgN/A
9:00 PM57 °FSprinkles. Passing clouds.20 mph94%29.95 "Hg4 mi
8:30 PM57 °FSprinkles. Passing clouds.18 mph94%29.95 "Hg4 mi
8:00 PM57 °FSprinkles. Fog.17 mph94%29.95 "Hg3 mi
7:30 PM59 °FSprinkles. Passing clouds.20 mph88%29.92 "Hg5 mi
7:00 PM59 °FSprinkles. Passing clouds.20 mph94%29.92 "HgN/A
6:30 PM59 °FSprinkles. Passing clouds.18 mph94%29.92 "HgN/A
6:00 PM59 °FSprinkles. Passing clouds.18 mph94%29.92 "HgN/A
5:30 PM59 °FSprinkles. Passing clouds.17 mph88%29.92 "HgN/A
5:00 PM59 °FRain showers. Fog.17 mph94%29.89 "Hg3 mi
Weather by CustomWeather, © 2014

See weather overviewHow to use our weather pages